Location: Anankanda
(14.7841°N, 3.0348°W)
Time: 06:13:48
(UTC+00:00)

Cosmos 1455 - Pass Details

Date: 17 January 2021
Orbit: 499 x 521 km, 82.5° (Epoch: 07 March)

Event Time Altitude Azimuth Distance (km) Brightness Sun altitude
Exits shadow 20:01:14 34° 232° (SW) 860 3.7 -27.9°
Drops below altitude 10° 20:03:55 10° 197° (SSW) 1,742 5.2 -28.5°
Sets 20:06:08 0° 189° (S) 2,630 6.1 -29.0°
